Total_Precipitation_Accumulation
1.49 1.49 2.10 1.99 1.77 1.70 1.58 1.54 1.42 1.31 1.22 1.06 0.94 0.82 0.74 0.70 0.68 0.69 0.66 0.58 0.55 0.54 0.51 0.58 0.68 0.60 0.59 0.61 0.61 0.64 0.71 0.77 0.72 0.61 0.62 0.64 0.66 0.83 0.98 1.07 1.21 1.25 1.12
1.16 1.46 2.21 2.09 1.89 1.76 1.61 1.57 1.42 1.18 1.01 0.92 0.86 0.78 0.68 0.65 0.67 0.64 0.57 0.53 0.52 0.49 0.49 0.60 0.70 0.70 0.69 0.74 0.79 0.84 0.87 0.83 0.77 0.69 0.81 0.86 0.83 0.92 1.02 1.10 1.39 1.36 1.09
1.09 1.29 1.73 2.18 2.01 1.76 1.62 1.50 1.38 1.20 0.92 0.79 0.75 0.74 0.64 0.57 0.56 0.55 0.54 0.48 0.50 0.51 0.50 0.58 0.68 0.66 0.69 0.77 0.87 0.88 0.87 0.85 0.80 0.88 1.33 1.82 1.41 1.12 1.03 1.13 1.24 1.13 1.00
1.02 1.16 1.38 1.97 1.89 1.73 1.62 1.45 1.47 1.24 0.94 0.80 0.77 0.71 0.61 0.56 0.59 0.64 0.63 0.54 0.53 0.53 0.51 0.53 0.64 0.62 0.62 0.70 0.75 0.75 0.81 0.86 0.92 1.17 1.71 2.15 1.93 1.45 1.30 1.21 1.15 1.08 0.98
1.00 1.15 1.66 2.03 1.73 1.58 1.45 1.41 1.47 1.31 1.09 0.94 0.82 0.72 0.66 0.61 0.61 0.69 0.63 0.60 0.59 0.58 0.59 0.61 0.66 0.63 0.58 0.58 0.62 0.67 0.81 1.05 1.22 1.27 1.57 1.84 2.00 1.72 1.41 1.24 1.17 1.12 1.11
0.99 1.13 1.51 1.72 1.57 1.47 1.39 1.32 1.31 1.31 1.29 1.08 0.90 0.83 0.79 0.73 0.71 0.75 0.73 0.66 0.67 0.67 0.69 0.67 0.65 0.65 0.63 0.63 0.65 0.73 0.92 1.16 1.23 1.30 1.59 1.76 1.80 1.61 1.32 1.21 1.26 1.34 1.37
0.83 0.98 1.24 1.49 1.40 1.33 1.30 1.26 1.19 1.25 1.32 1.17 0.91 0.90 0.92 0.83 0.81 0.82 0.83 0.72 0.72 0.71 0.73 0.75 0.69 0.69 0.67 0.68 0.72 0.83 0.97 1.02 1.01 1.24 1.59 1.86 1.64 1.44 1.32 1.21 1.22 1.44 1.58
0.91 0.90 1.01 1.26 1.33 1.23 1.24 1.28 1.13 1.11 1.19 1.12 0.99 0.92 0.86 0.85 0.88 0.88 0.82 0.78 0.76 0.78 0.79 0.80 0.80 0.75 0.70 0.72 0.80 0.93 1.03 0.94 0.81 0.96 1.17 1.67 1.92 1.73 1.38 1.18 1.21 1.33 1.50
1.27 1.14 0.98 0.96 1.08 1.11 1.16 1.24 1.16 1.09 1.08 1.02 1.06 1.00 0.96 0.93 0.88 0.83 0.82 0.82 0.82 0.84 0.85 0.81 0.78 0.76 0.76 0.79 0.81 0.89 0.96 0.94 0.90 0.91 0.94 1.48 1.90 1.82 1.43 1.18 1.16 1.38 1.49
1.31 1.20 1.02 0.92 0.91 0.96 0.89 1.02 1.20 1.23 1.15 1.04 1.02 1.01 1.01 0.95 0.87 0.82 0.75 0.78 0.85 0.88 0.93 0.92 0.84 0.84 0.85 0.82 0.81 0.87 0.92 0.83 0.73 0.73 0.91 1.33 1.88 1.90 1.64 1.22 1.02 1.08 1.18
1.09 1.03 0.96 0.93 0.94 1.01 1.03 1.00 1.21 1.28 1.19 1.00 0.90 0.94 0.94 0.80 0.82 0.84 0.75 0.90 0.93 0.98 1.01 1.01 0.97 0.95 0.90 0.87 0.90 0.98 0.85 0.66 0.75 0.75 0.95 1.37 1.74 1.83 1.72 1.37 1.02 0.95 1.00
0.85 0.78 0.74 0.74 0.80 0.91 1.00 1.34 1.55 1.34 1.22 0.95 0.94 0.83 0.89 0.96 1.03 0.86 0.81 1.02 1.06 1.11 1.09 1.09 1.11 1.01 0.84 0.70 0.80 0.88 0.75 0.71 0.73 0.71 0.97 1.39 1.64 1.73 1.65 1.44 1.17 1.03 1.06
0.65 0.57 0.53 0.49 0.51 0.60 0.80 1.15 1.43 1.55 1.52 1.43 1.19 0.96 0.97 0.85 0.74 0.68 0.70 0.82 0.91 0.99 0.97 1.00 1.01 0.85 0.76 0.72 0.68 0.66 0.77 0.75 0.79 0.83 1.08 1.41 1.59 1.70 1.66 1.48 1.28 1.18 1.17
0.61 0.57 0.49 0.46 0.42 0.44 0.53 0.71 0.91 1.05 1.14 1.16 1.01 0.91 0.98 0.87 0.76 0.76 0.76 0.77 0.77 0.87 1.00 1.03 0.99 0.87 0.76 0.66 0.63 0.68 0.75 0.74 0.87 1.09 1.27 1.26 1.42 1.65 1.73 1.59 1.43 1.30 1.26
0.70 0.71 0.62 0.50 0.46 0.44 0.48 0.56 0.64 0.79 0.87 0.90 0.93 0.88 0.91 0.92 0.89 0.86 0.78 0.78 0.73 0.81 0.93 1.03 0.98 0.88 0.84 0.78 0.74 0.82 0.87 0.94 0.97 1.05 1.14 1.15 1.32 1.63 1.86 1.85 1.65 1.44 1.35
0.72 0.72 0.71 0.60 0.55 0.51 0.48 0.52 0.55 0.65 0.74 0.78 0.76 0.76 0.86 0.95 0.94 0.91 0.86 0.87 0.85 0.88 1.01 1.00 0.91 0.97 0.97 0.90 0.77 0.77 0.85 0.92 0.97 0.97 1.02 1.13 1.21 1.31 1.71 1.96 1.93 1.72 1.62
0.70 0.67 0.66 0.65 0.65 0.63 0.61 0.59 0.57 0.64 0.74 0.76 0.73 0.68 0.70 0.78 0.84 0.87 0.88 0.88 0.93 1.02 1.08 1.10 0.93 0.97 0.95 0.86 0.80 0.74 0.74 0.77 0.83 0.89 0.86 0.86 0.94 1.08 1.39 1.77 2.04 1.95 1.84
0.57 0.55 0.58 0.58 0.62 0.69 0.71 0.72 0.73 0.73 0.80 0.77 0.76 0.69 0.64 0.69 0.77 0.90 0.91 0.90 0.93 1.06 1.15 1.20 1.11 1.08 1.02 0.98 0.94 0.86 0.78 0.82 0.79 0.85 0.86 0.80 0.93 0.89 1.08 1.28 1.56 1.77 1.90
0.47 0.46 0.49 0.52 0.54 0.64 0.73 0.76 0.84 0.86 0.87 0.85 0.84 0.74 0.71 0.77 0.84 1.01 1.12 1.13 1.13 1.15 1.15 1.10 1.16 1.16 1.14 1.15 1.06 1.00 0.92 0.87 0.90 0.83 0.86 0.90 0.85 0.87 0.97 0.89 0.98 1.17 1.51
0.38 0.39 0.42 0.47 0.50 0.56 0.70 0.82 0.97 1.09 1.05 1.07 1.01 0.89 0.91 1.05 1.19 1.33 1.33 1.41 1.48 1.37 1.33 1.28 1.30 1.25 1.19 1.24 1.12 1.02 0.94 0.86 0.94 0.97 0.95 0.97 0.92 0.85 0.94 0.90 0.89 0.83 1.03
0.27 0.30 0.35 0.39 0.47 0.54 0.61 0.75 0.96 1.24 1.35 1.44 1.40 1.22 1.16 1.28 1.52 1.73 1.70 1.75 1.79 1.68 1.64 1.68 1.88 1.84 1.57 1.33 1.37 1.21 1.01 0.86 0.99 1.03 1.01 1.04 1.05 1.11 1.15 1.03 0.92 0.92 0.82
0.19 0.20 0.26 0.34 0.44 0.52 0.60 0.78 0.94 1.08 1.08 1.26 1.41 1.39 1.30 1.29 1.44 1.58 1.83 1.93 1.87 1.91 2.03 2.04 2.38 2.53 2.09 1.66 1.65 1.77 1.50 1.29 1.04 0.91 0.97 1.00 1.10 1.30 1.29 1.07 0.98 0.91 0.85
0.15 0.16 0.19 0.27 0.37 0.50 0.65 0.88 1.09 1.27 1.36 1.42 1.35 1.43 1.44 1.37 1.41 1.51 1.67 1.83 1.84 1.92 2.01 2.14 2.47 2.95 2.71 2.17 1.91 2.11 1.82 1.61 1.42 1.08 0.94 0.98 1.09 1.32 1.46 1.33 1.22 1.14 0.98
0.16 0.15 0.17 0.26 0.40 0.61 0.82 1.06 1.31 1.52 1.55 1.44 1.48 1.51 1.40 1.34 1.31 1.37 1.52 1.66 1.78 1.81 1.94 2.04 2.16 2.64 2.98 2.67 2.37 2.01 1.67 1.60 1.71 1.52 1.19 1.13 1.17 1.24 1.33 1.29 1.27 1.35 1.23
0.22 0.22 0.28 0.48 0.72 0.98 1.20 1.45 1.73 1.72 1.61 1.51 1.51 1.48 1.42 1.44 1.40 1.39 1.54 1.62 1.64 1.69 1.79 2.12 2.38 2.64 2.84 2.79 2.69 2.50 2.23 1.94 1.61 1.73 1.67 1.44 1.32 1.23 1.24 1.28 1.29 1.36 1.38
0.51 0.65 0.84 1.10 1.29 1.37 1.50 1.67 1.78 1.74 1.75 1.68 1.50 1.40 1.40 1.45 1.50 1.54 1.60 1.61 1.59 1.62 1.73 1.95 2.23 2.44 2.75 2.92 2.81 2.59 2.45 2.32 2.10 1.96 1.74 1.63 1.60 1.40 1.31 1.30 1.24 1.28 1.40